Weather History for Valladolid Airport, Spain

Change the Weather History Date:

Friday, November 30, 2012

  Actual Average Record
Temperature  
Mean Temperature 36 °F -  
Max Temperature 41 °F - - ()
Min Temperature 32 °F - - ()
Degree Days  
Heating Degree Days 28    
Moisture  
Dew Point 33 °F    
Average Humidity 89    
Maximum Humidity 100    
Minimum Humidity 70    
Precipitation  
Precipitation 0.00 in - - ()
Sea Level Pressure  
Sea Level Pressure 29.71 in    
Wind  
Wind Speed 6 mph ()    
Max Wind Speed 22 mph    
Max Gust Speed -    
Visibility 4.9 miles    
Events Fog    
T = Trace of Precipitation, MM = Missing Value Source: Averaged Metar Reports

Daily Weather History Graph

Daily Weather History Graph

Search for Another Location

Airport:

Trip Planner

Search our weather history database for the weather conditions in past years. The results will help you decide how hot, cold, wet, or windy it might be!

Date:

Astronomy

Nov. 30, 2012 Rise Set
Actual Time 8:26 AM CET 5:49 PM CET
Civil Twilight 7:55 AM CET 6:20 PM CET
Nautical Twilight 7:20 AM CET 6:55 PM CET
Astronomical Twilight 6:47 AM CET 7:28 PM CET
Moon 7:32 PM CET (11/30) 9:47 AM CET (11/30)
Length of Visible Light 10h 25m
Length of Day
9h 23m
Full, 97% of the Moon is Illuminated
Nov 30
Full
Dec 6
Last Quarter
Dec 13
New
Dec 20
First Quarter
Dec 28
Full

Hourly Weather History & Observations

Time (CET) Temp. Windchill Dew Point Humidity Pressure Visibility Wind Dir Wind Speed Gust Speed Precip Events Conditions
6:00 AM 33.8 °F - 33.8 °F 100% 29.71 in 2.5 mi Variable 1.2 mph - N/A   Mostly Cloudy
6:30 AM 33.8 °F - 33.8 °F 100% 29.68 in 1.2 mi West 1.2 mph - N/A   Mostly Cloudy
7:00 AM 33.8 °F - 33.8 °F 100% 29.68 in 1.2 mi WSW 1.2 mph - N/A   Mostly Cloudy
7:30 AM 33.8 °F - 33.8 °F 100% 29.68 in 1.2 mi WSW 2.3 mph - N/A Fog Mostly Cloudy
8:00 AM 32.0 °F - 32.0 °F 100% 29.68 in 0.9 mi WSW 1.2 mph - N/A Fog Mostly Cloudy
8:19 AM 32.0 °F - 32.0 °F 100% 29.68 in 0.5 mi West 1.2 mph - N/A Fog Fog
8:30 AM 32.0 °F - 32.0 °F 100% 29.68 in 0.5 mi West 2.3 mph - N/A Fog Fog
9:00 AM 32.0 °F - 32.0 °F 100% 29.68 in 2.5 mi NW 2.3 mph - N/A   Scattered Clouds
9:30 AM 32.0 °F 28.7 °F 32.0 °F 100% 29.71 in 3.1 mi NNW 3.5 mph - N/A   Scattered Clouds
10:00 AM 33.8 °F 29.6 °F 33.8 °F 100% 29.71 in 3.1 mi NW 4.6 mph - N/A   Mostly Cloudy
10:30 AM 35.6 °F 30.7 °F 35.6 °F 100% 29.71 in 6.2 mi North 5.8 mph - N/A   Scattered Clouds
11:00 AM 35.6 °F 32.8 °F 35.6 °F 100% 29.71 in 6.2 mi NNE 3.5 mph - N/A   Scattered Clouds
11:30 AM 37.4 °F 32.8 °F 35.6 °F 93% 29.71 in 6.2 mi North 5.8 mph - N/A   Mostly Cloudy
12:00 PM 37.4 °F 32.1 °F 35.6 °F 93% 29.71 in 6.2 mi North 6.9 mph - N/A   Mostly Cloudy
12:30 PM 37.4 °F 32.1 °F 35.6 °F 93% 29.71 in 6.2 mi North 6.9 mph - N/A   Mostly Cloudy
1:00 PM 39.2 °F 33.6 °F 35.6 °F 87% 29.71 in 6.2 mi North 8.1 mph - N/A   Mostly Cloudy
1:30 PM 39.2 °F 33.0 °F 35.6 °F 87% 29.68 in 6.2 mi NNE 9.2 mph - N/A   Mostly Cloudy
2:00 PM 39.2 °F 34.2 °F 33.8 °F 81% 29.68 in 6.2 mi North 6.9 mph - N/A   Scattered Clouds
2:30 PM 41.0 °F 37.1 °F 33.8 °F 76% 29.68 in 6.2 mi NE 5.8 mph - N/A   Scattered Clouds
3:00 PM 41.0 °F 35.2 °F 33.8 °F 76% 29.68 in 6.2 mi NE 9.2 mph - N/A   Scattered Clouds
3:30 PM 41.0 °F 34.7 °F 35.6 °F 81% 29.68 in 6.2 mi NE 10.4 mph - N/A   Mostly Cloudy
4:00 PM 41.0 °F 34.3 °F 35.6 °F 81% 29.68 in 6.2 mi NNE 11.5 mph - N/A   Mostly Cloudy
4:30 PM 39.2 °F 32.0 °F 33.8 °F 81% 29.68 in 6.2 mi NNE 11.5 mph - N/A   Mostly Cloudy
5:00 PM 39.2 °F 32.0 °F 35.6 °F 87% 29.68 in 6.2 mi NNE 11.5 mph - N/A   Mostly Cloudy
5:30 PM 39.2 °F 31.6 °F 35.6 °F 87% 29.71 in 6.2 mi NE 12.7 mph - N/A   Mostly Cloudy
6:00 PM 39.2 °F 30.2 °F 33.8 °F 81% 29.71 in 6.2 mi NE 17.3 mph - N/A   Mostly Cloudy
6:30 PM 35.6 °F 26.6 °F 32.0 °F 87% 29.71 in 6.2 mi NE 13.8 mph - N/A   Mostly Cloudy
7:00 PM 35.6 °F 28.0 °F 32.0 °F 87% 29.74 in 6.2 mi NE 10.4 mph - N/A   Scattered Clouds
7:30 PM 35.6 °F 28.0 °F 32.0 °F 87% 29.74 in 6.2 mi NE 10.4 mph - N/A   Mostly Cloudy
8:00 PM 35.6 °F 25.9 °F 30.2 °F 81% 29.74 in 6.2 mi NE 16.1 mph - N/A   Mostly Cloudy
8:30 PM 35.6 °F 24.8 °F 30.2 °F 81% 29.74 in 6.2 mi NE 19.6 mph - N/A   Scattered Clouds
9:00 PM 35.6 °F 24.2 °F 26.6 °F 70% 29.77 in 6.2 mi ENE 21.9 mph - N/A   Partly Cloudy
9:30 PM 33.8 °F 22.8 °F 24.8 °F 70% 29.77 in 6.2 mi NE 18.4 mph - N/A   Partly Cloudy
10:00 PM 32.0 °F 22.5 °F 24.8 °F 75% 29.80 in 6.2 mi ENE 12.7 mph - N/A   Partly Cloudy
10:30 PM 32.0 °F 23.0 °F 26.6 °F 80% 29.80 in 6.2 mi ENE 11.5 mph - N/A   Partly Cloudy